Home   Weather   Alice Springs   Past weeks
Flag for Australia

Past Weather in Alice Springs, Northern Territory, Australia — Yesterday and Last 2 Weeks

Now
75 °F

Sunny.


Feels Like: 77 °F
Forecast: 78 / 52 °F
Wind: 10 mph from Southeast

Location: Alice Springs Aerodrome

Current Time: Apr 6, 2020 at 6:35:08 pm

Latest Report: Apr 6, 2020 at 6:00 pm


Visibility: N/A

Pressure: 30.07 "Hg (28.13 "Hg at 581m altitude)

Humidity: 25%

Dew Point: 37 °F

Location of Alice SpringsLocation

Past Weather in Alice Springs — Graph

°F

Alice Springs Temperature Yesterday

Maximum temperature yesterday: 79 °F (at 3:30 pm)
Minimum temperature yesterday: 50 °F (at 7:00 am)
Average temperature yesterday: 66 °F

High & Low Weather Summary for the Past Weeks

 TemperatureHumidityPressure
High100 °F (Mar 29, 4:30 pm)94% (Apr 1, 8:54 pm)30.18 "Hg (Apr 1, 8:54 pm)
Low50 °F (Apr 5, 7:00 am)13% (Mar 29, 12:00 pm)29.71 "Hg (Apr 2, 3:30 pm)
Average78 °F38%29.98 "Hg
* Reported Mar 22 5:30 pm — Apr 6 5:30 pm, Alice Springs. Weather by CustomWeather, © 2020

Note: Actual official high and low records may vary slightly from our data, if they occured in-between our weather recording intervals... More about our weather records

Alice Springs Weather History for the Previous 24 Hours

Scroll right to see more
 ConditionsComfort  
Time TempWeatherWind HumidityBarometerVisibility
5:30 pm
Mon, Apr 6
75 °FSunny.12 mph25%30.04 "HgN/A
5:00 pm77 °FSunny.13 mph26%30.04 "HgN/A
4:30 pm77 °FSunny.13 mph26%30.04 "HgN/A
4:00 pm77 °FSunny.13 mph24%30.04 "HgN/A
3:30 pm77 °FSunny.10 mph24%30.04 "HgN/A
3:00 pm77 °FSunny.15 mph24%30.04 "HgN/A
2:30 pm79 °FSunny.14 mph23%30.07 "HgN/A
2:00 pm77 °FSunny.13 mph24%30.07 "HgN/A
1:30 pm77 °FSunny.13 mph26%30.09 "HgN/A
1:00 pm75 °FSunny.14 mph27%30.09 "HgN/A
12:30 pm73 °FSunny.10 mph31%30.12 "HgN/A
12:00 pm73 °FSunny.10 mph29%30.12 "HgN/A
11:30 am73 °FSunny.15 mph29%30.15 "Hg10 mi
11:00 am73 °FPassing clouds.13 mph31%30.15 "HgN/A
10:30 am72 °FSunny.12 mph33%30.15 "Hg10 mi
10:00 am72 °FSunny.13 mph33%30.18 "Hg10 mi
9:30 am68 °FSunny.10 mph38%30.18 "Hg10 mi
9:00 am66 °FSunny.13 mph40%30.18 "Hg10 mi
8:30 am64 °FSunny.8 mph46%30.18 "HgN/A
8:00 am61 °FSunny.6 mph52%30.15 "HgN/A
7:30 am54 °FSunny.3 mph67%30.15 "HgN/A
7:00 am50 °FClear.8 mph76%30.12 "HgN/A
6:30 am50 °FClear.No wind76%30.12 "HgN/A
6:00 am50 °FClear.No wind76%30.12 "HgN/A
5:00 am52 °FClear.No wind72%30.09 "HgN/A
4:30 am52 °FClear.No wind72%30.09 "HgN/A
4:00 am52 °FClear.No wind72%30.09 "HgN/A
3:30 am54 °FClear.2 mph67%30.09 "HgN/A
3:00 am54 °FClear.2 mph67%30.09 "HgN/A
2:30 am55 °FClear.6 mph59%30.12 "HgN/A
2:00 am55 °FClear.6 mph63%30.12 "HgN/A
1:30 am55 °FClear.No wind63%30.12 "HgN/A
1:00 am57 °FClear.No wind59%30.12 "HgN/A
12:30 am57 °FClear.No wind55%30.12 "HgN/A
12:00 am59 °FClear.1 mph55%30.12 "HgN/A
11:30 pm
Sun, Apr 5
61 °FClear.5 mph52%30.12 "HgN/A
11:00 pm61 °FClear.1 mph48%30.12 "HgN/A
10:30 pm63 °FClear.3 mph45%30.12 "HgN/A
10:00 pm64 °FClear.7 mph40%30.12 "HgN/A
9:30 pm64 °FClear.8 mph40%30.12 "HgN/A
9:00 pm68 °FClear.8 mph35%30.12 "HgN/A
8:30 pm68 °FClear.8 mph35%30.09 "HgN/A
8:00 pm70 °FClear.8 mph33%30.09 "HgN/A
7:30 pm72 °FClear.10 mph29%30.07 "HgN/A
7:00 pm72 °FClear.8 mph29%30.07 "HgN/A
6:30 pm73 °FSunny.12 mph27%30.07 "HgN/A
6:00 pm75 °FSunny.13 mph25%30.04 "HgN/A
Weather by CustomWeather, © 2020

See weather overview

Advertising